GW5308 Weather Reports


Display with metric or nautical units.
time (UTC)temp
F
wind
direction
speed
MPH
gust
MPH
rain 1hr
in
rain 24hr
in
rain mn
in
humidity
%
barometer
mb
20260502205522 68 0 0.0 2.0 0.06 0.17 0.17 100 1008.2
20260502205018 68 0 0.0 4.0 0.07 0.17 0.17 100 1008.2
20260502204538 68 0 0.0 4.0 0.07 0.17 0.17 99 1007.8
20260502204018 68 0 0.0 5.0 0.08 0.17 0.17 99 1008.8
20260502203516 68 177 1.0 5.0 0.08 0.17 0.17 99 1009.0
20260502203056 68 0 0.0 3.0 0.08 0.16 0.16 99 1008.7
20260502202515 68 0 0.0 6.0 0.08 0.15 0.15 99 1009.1
20260502202015 68 278 0.0 6.0 0.09 0.15 0.15 99 1009.2
20260502201537 68 149 1.0 6.0 0.08 0.14 0.14 99 1009.2
20260502201013 68 0 0.0 2.0 0.08 0.13 0.13 99 1009.1
20260502200515 68 0 0.0 2.0 0.08 0.12 0.12 99 1009.2
20260502200038 68 0 0.0 2.0 0.10 0.12 0.12 99 1009.4
20260502195517 68 0 0.0 2.0 0.10 0.11 0.11 98 1009.1
20260502195013 68 0 0.0 4.0 0.10 0.10 0.10 98 1009.2
20260502194531 68 0 0.0 4.0 0.10 0.10 0.10 98 1009.0
20260502194015 68 210 0.0 3.0 0.09 0.09 0.09 98 1009.4
20260502193518 68 0 0.0 3.0 0.09 0.09 0.09 98 1010.0
20260502193054 68 0 0.0 3.0 0.08 0.08 0.08 97 1010.0
20260502192515 68 103 0.0 7.0 0.07 0.07 0.07 97 1010.3
20260502192018 68 249 0.0 7.0 0.06 0.06 0.06 97 1010.7
20260502191541 69 155 0.0 4.0 0.06 0.06 0.06 96 1010.6
20260502191016 69 205 0.0 7.0 0.05 0.05 0.05 96 1011.1
20260502190513 70 196 0.0 9.0 0.04 0.04 0.04 95 1010.8
20260502190033 70 222 1.0 9.0 0.02 0.02 0.02 93 1010.7
20260502185513 71 220 1.0 9.0 0.01 0.01 0.01 92 1010.6
20260502185015 71 259 0.0 5.0 0.00 0.00 0.00 90 1010.4
20260502184534 72 54 1.0 6.0 0.00 0.00 0.00 88 1010.5
20260502184013 72 115 1.0 6.0 0.00 0.00 0.00 86 1010.4
20260502183516 73 210 2.0 11.0 0.00 0.00 0.00 84 1010.3
20260502183032 75 81 2.0 11.0 0.00 0.00 0.00 80 1010.4
20260502182520 78 297 3.0 11.0 0.00 0.00 0.00 73 1010.1
20260502182018 80 267 3.0 11.0 0.00 0.00 0.00 68 1010.2
20260502181531 83 326 2.0 11.0 0.00 0.00 0.00 72 1009.8
20260502181013 83 193 1.0 6.0 0.00 0.00 0.00 73 1009.5
20260502180514 83 191 1.0 6.0 0.00 0.00 0.00 74 1009.5
20260502170518 86 214 1.0 5.0 0.00 0.00 0.00 72 1009.1
20260502164015 84 219 0.0 3.0 0.00 0.00 0.00 75 1009.3
20260502163515 84 133 1.0 4.0 0.00 0.00 0.00 73 1009.3
20260502163041 83 319 0.0 5.0 0.00 0.00 0.00 74 1009.2
20260502162514 83 212 1.0 5.0 0.00 0.00 0.00 74 1009.3
20260502162017 83 0 0.0 3.0 0.00 0.00 0.00 74 1009.2
20260502161546 84 210 0.0 4.0 0.00 0.00 0.00 73 1009.2
20260502161014 84 237 0.0 4.0 0.00 0.00 0.00 72 1009.3
20260502160516 84 231 1.0 4.0 0.00 0.00 0.00 71 1009.3
20260502152015 81 257 0.0 3.0 0.00 0.00 0.00 79 1009.4
20260502151533 81 248 0.0 3.0 0.00 0.00 0.00 79 1009.5
20260502151016 81 307 0.0 3.0 0.00 0.00 0.00 80 1009.7
20260502150514 80 0 0.0 3.0 0.00 0.00 0.00 80 1009.8
20260502130514 74 0 0.0 1.0 0.00 0.00 0.00 97 1009.7
20260502123515 72 0 0.0 0.0 0.00 0.00 0.00 100 1009.3
20260502123054 71 0 0.0 0.0 0.00 0.00 0.00 100 1009.4
20260502122513 70 0 0.0 0.0 0.00 0.00 0.00 100 1009.3
20260502122014 70 0 0.0 0.0 0.00 0.00 0.00 100 1009.3
20260502121531 69 0 0.0 0.0 0.00 0.00 0.00 100 1009.1
20260502121014 69 0 0.0 0.0 0.00 0.00 0.00 100 1009.2
20260502120519 69 0 0.0 0.0 0.00 0.00 0.00 100 1009.1
20260502115513 68 0 0.0 0.0 0.00 0.00 0.00 100 1009.0
20260502115013 68 0 0.0 0.0 0.00 0.00 0.00 100 1009.1
20260502114534 67 0 0.0 0.0 0.00 0.00 0.00 100 1009.1
20260502114014 67 0 0.0 0.0 0.00 0.00 0.00 100 1009.0
20260502113516 66 0 0.0 0.0 0.00 0.00 0.00 100 1009.1
20260502113037 66 0 0.0 0.0 0.00 0.00 0.00 100 1009.0
20260502112514 66 0 0.0 0.0 0.00 0.00 0.00 100 1009.0
20260502112012 65 0 0.0 0.0 0.00 0.00 0.00 100 1009.0
20260502111536 65 0 0.0 0.0 0.00 0.00 0.00 100 1009.1
20260502111015 65 0 0.0 0.0 0.00 0.00 0.00 100 1008.9
20260502110517 65 0 0.0 0.0 0.00 0.00 0.00 100 1008.9
20260502110031 65 0 0.0 0.0 0.00 0.00 0.00 100 1008.6
20260502105518 65 0 0.0 0.0 0.00 0.00 0.00 100 1008.5
20260502105016 65 0 0.0 0.0 0.00 0.00 0.00 100 1008.4
20260502104535 65 0 0.0 0.0 0.00 0.00 0.00 100 1008.3
20260502104016 65 0 0.0 0.0 0.00 0.00 0.00 100 1008.1
20260502103516 65 0 0.0 0.0 0.00 0.00 0.00 100 1007.9
20260502103030 65 0 0.0 0.0 0.00 0.00 0.00 100 1007.9
20260502102515 66 0 0.0 0.0 0.00 0.00 0.00 100 1008.1
20260502102016 65 0 0.0 0.0 0.00 0.00 0.00 100 1008.1
20260502101542 65 0 0.0 0.0 0.00 0.00 0.00 100 1008.2
20260502101013 65 0 0.0 0.0 0.00 0.00 0.00 100 1008.1
20260502100512 65 0 0.0 0.0 0.00 0.00 0.00 100 1008.0
20260502091530 67 0 0.0 0.0 0.00 0.00 0.00 100 1008.8
20260502091014 67 0 0.0 0.0 0.00 0.00 0.00 100 1008.9
20260502090514 67 0 0.0 0.0 0.00 0.00 0.00 100 1009.0
20260502071533 68 0 0.0 0.0 0.00 0.00 0.00 100 1009.2
20260502071017 68 0 0.0 1.0 0.00 0.00 0.00 100 1009.4
20260502070518 68 0 0.0 1.0 0.00 0.00 0.00 100 1009.2
20260502070036 68 0 0.0 1.0 0.00 0.00 0.00 100 1009.2
20260502065515 68 0 0.0 0.0 0.00 0.00 0.00 100 1009.3
20260502065016 68 0 0.0 0.0 0.00 0.00 0.00 100 1009.2
20260502064545 68 0 0.0 0.0 0.00 0.00 0.00 100 1009.2
20260502064016 67 0 0.0 0.0 0.00 0.00 0.00 100 1009.4
20260502063515 67 0 0.0 0.0 0.00 0.00 0.00 100 1009.5
20260502063035 67 0 0.0 0.0 0.00 0.00 0.00 100 1009.6
20260502062518 67 0 0.0 0.0 0.00 0.00 0.00 100 1009.6
20260502062017 67 0 0.0 0.0 0.00 0.00 0.00 100 1009.7
20260502061532 67 0 0.0 0.0 0.00 0.00 0.00 100 1009.6
20260502061013 67 0 0.0 0.0 0.00 0.00 0.00 100 1009.4
20260502060514 67 0 0.0 0.0 0.00 0.00 0.00 100 1009.7
20260502060034 67 0 0.0 0.0 0.00 0.00 0.00 100 1009.7
20260502055516 67 0 0.0 0.0 0.00 0.00 0.00 99 1009.7
20260502055016 67 0 0.0 0.0 0.00 0.00 0.00 99 1009.7
20260502054536 67 0 0.0 0.0 0.00 0.00 0.00 99 1009.8
20260502054015 67 0 0.0 0.0 0.00 0.00 0.00 99 1009.8
20260502053515 67 0 0.0 0.0 0.00 0.00 0.00 99 1009.8
20260502053035 67 0 0.0 0.0 0.00 0.00 0.00 99 1010.0
20260502052515 67 0 0.0 0.0 0.00 0.00 0.00 99 1010.1
20260502052016 67 0 0.0 0.0 0.00 0.00 0.00 99 1010.1
20260502051537 68 0 0.0 0.0 0.00 0.00 0.00 99 1010.2
20260502051015 68 0 0.0 0.0 0.00 0.00 0.00 99 1010.1
20260502050513 68 0 0.0 0.0 0.00 0.00 0.00 99 1010.0
20260502050040 68 0 0.0 0.0 0.00 0.00 0.00 99 1010.0
20260502045519 68 0 0.0 0.0 0.00 0.00 0.00 99 1009.8
20260502045014 68 0 0.0 0.0 0.00 0.00 0.00 98 1009.8
20260502044530 68 0 0.0 0.0 0.00 0.00 0.00 98 1009.9
20260502044013 68 0 0.0 0.0 0.00 0.00 0.00 98 1009.9
20260502043514 68 0 0.0 0.0 0.00 0.00 0.00 98 1010.0
20260502043038 68 0 0.0 0.0 0.00 0.00 0.00 98 1010.0
20260502042515 69 0 0.0 0.0 0.00 0.00 0.00 98 1010.0
20260502042017 69 0 0.0 0.0 0.00 0.00 0.00 97 1009.9
20260502041534 69 0 0.0 0.0 0.00 0.00 0.00 98 1009.9
20260502041014 69 0 0.0 0.0 0.00 0.00 0.00 98 1010.0
20260502040518 69 0 0.0 0.0 0.00 0.00 0.00 97 1010.0
20260502040034 69 0 0.0 0.0 0.00 0.00 0.00 97 1010.0
20260502035514 69 0 0.0 0.0 0.00 0.00 0.00 96 1010.1
20260502035013 69 0 0.0 0.0 0.00 0.00 0.00 97 1010.1
20260502034532 69 0 0.0 0.0 0.00 0.00 0.00 96 1010.2
20260502034015 70 0 0.0 0.0 0.00 0.00 0.00 96 1010.1
20260502033516 70 0 0.0 0.0 0.00 0.00 0.00 96 1010.2
20260502033034 70 0 0.0 0.0 0.00 0.00 0.00 96 1010.2
20260502032514 70 0 0.0 0.0 0.00 0.00 0.00 95 1010.1
20260502032014 70 0 0.0 0.0 0.00 0.00 0.00 95 1010.1
20260502031533 70 0 0.0 0.0 0.00 0.00 0.00 95 1010.2
20260502031016 70 0 0.0 0.0 0.00 0.00 0.00 94 1010.2
20260502030515 70 0 0.0 0.0 0.00 0.00 0.00 94 1010.2
20260502030034 70 0 0.0 0.0 0.00 0.00 0.00 94 1010.0
20260502025519 71 0 0.0 0.0 0.00 0.00 0.00 94 1010.0
20260502025015 71 0 0.0 0.0 0.00 0.00 0.00 94 1010.1
20260502024534 71 0 0.0 0.0 0.00 0.00 0.00 94 1010.1
20260502024014 71 0 0.0 0.0 0.00 0.00 0.00 94 1010.2
20260502023513 71 0 0.0 0.0 0.00 0.00 0.00 93 1010.3
20260502023032 71 0 0.0 0.0 0.00 0.00 0.00 92 1010.3
20260502022515 71 0 0.0 0.0 0.00 0.00 0.00 92 1010.2
20260502022020 71 0 0.0 0.0 0.00 0.00 0.00 92 1010.2
20260502021531 71 0 0.0 0.0 0.00 0.00 0.00 91 1010.2
20260502021015 71 0 0.0 0.0 0.00 0.00 0.00 91 1010.2
20260502020515 72 0 0.0 0.0 0.00 0.00 0.00 90 1010.1
20260502020034 72 0 0.0 0.0 0.00 0.00 0.00 89 1010.3
20260502015513 72 0 0.0 0.0 0.00 0.00 0.00 88 1010.4
20260502015016 73 0 0.0 0.0 0.00 0.00 0.00 88 1010.4
20260502014536 73 0 0.0 0.0 0.00 0.00 0.00 88 1010.4
20260502014015 74 0 0.0 0.0 0.00 0.00 0.00 86 1010.4
20260502013514 74 0 0.0 0.0 0.00 0.00 0.00 85 1010.3
20260502013033 74 0 0.0 0.0 0.00 0.00 0.00 85 1010.3
20260502012515 75 0 0.0 0.0 0.00 0.00 0.00 85 1010.4
20260502012015 75 0 0.0 0.0 0.00 0.00 0.00 84 1010.3
20260502011532 75 0 0.0 0.0 0.00 0.00 0.00 83 1010.3
20260502011015 76 0 0.0 0.0 0.00 0.00 0.00 83 1010.3
20260502010515 76 0 0.0 0.0 0.00 0.00 0.00 82 1010.3
20260502010032 76 0 0.0 0.0 0.00 0.00 0.00 81 1010.3
20260502005515 76 0 0.0 0.0 0.00 0.00 0.00 81 1010.2
20260502005016 77 0 0.0 1.0 0.00 0.00 0.00 80 1010.1
20260502004530 77 0 0.0 1.0 0.00 0.00 0.00 79 1010.2
20260502004026 77 0 0.0 2.0 0.00 0.00 0.00 79 1010.0
20260502003515 78 0 0.0 2.0 0.00 0.00 0.00 78 1009.9
20260502003035 78 12 0.0 3.0 0.00 0.00 0.00 78 1009.7
20260502002514 78 4 0.0 3.0 0.00 0.00 0.00 77 1009.6
20260502002014 78 308 0.0 2.0 0.00 0.00 0.00 77 1009.5
20260502001545 78 0 0.0 3.0 0.00 0.00 0.00 77 1009.5
20260502001015 79 25 0.0 3.0 0.00 0.00 0.00 76 1009.4
20260502000514 79 31 0.0 2.0 0.00 0.00 0.00 76 1009.4
20260502000033 79 0 0.0 2.0 0.00 0.00 0.00 75 1009.3
20260501235518 80 96 0.0 2.0 0.00 0.00 0.00 75 1009.3
20260501235018 80 295 0.0 2.0 0.00 0.00 0.00 74 1009.3
20260501234537 80 352 0.0 2.0 0.00 0.00 0.00 74 1009.2
20260501234016 80 0 0.0 2.0 0.00 0.00 0.00 73 1009.1
20260501233515 80 0 0.0 3.0 0.00 0.00 0.00 73 1009.0
20260501233035 81 0 0.0 4.0 0.00 0.00 0.00 72 1008.9
20260501232515 81 7 0.0 4.0 0.00 0.00 0.00 72 1008.9
20260501232018 81 10 1.0 4.0 0.00 0.00 0.00 71 1008.8
20260501231535 81 302 1.0 5.0 0.00 0.00 0.00 71 1008.6
20260501231015 82 0 0.0 5.0 0.00 0.00 0.00 71 1008.5
20260501230516 82 359 1.0 4.0 0.00 0.00 0.00 70 1008.3
20260501230034 82 0 0.0 2.0 0.00 0.00 0.00 70 1008.2
20260501225515 83 0 0.0 4.0 0.00 0.00 0.00 69 1008.2
20260501225018 83 0 0.0 4.0 0.00 0.00 0.00 68 1008.3
20260501224531 84 4 1.0 5.0 0.00 0.00 0.00 68 1008.2
20260501224015 84 11 1.0 5.0 0.00 0.00 0.00 68 1008.1
20260501223513 84 5 2.0 7.0 0.00 0.00 0.00 67 1008.1
20260501223033 85 40 2.0 7.0 0.00 0.00 0.00 66 1007.9
20260501222515 85 2 1.0 7.0 0.00 0.00 0.00 65 1007.9
20260501222020 86 356 1.0 5.0 0.00 0.00 0.00 65 1007.9
20260501221537 86 13 1.0 4.0 0.00 0.00 0.00 65 1007.7
20260501221014 87 282 0.0 5.0 0.00 0.00 0.00 65 1007.7
20260501220514 87 111 1.0 6.0 0.00 0.00 0.00 64 1007.7
20260501220038 88 359 1.0 6.0 0.00 0.00 0.00 62 1007.7
20260501215516 89 34 2.0 6.0 0.00 0.00 0.00 59 1007.8
20260501215015 91 1 0.0 1.0 0.00 0.00 0.00 50 1007.9
20260501214543 91 325 0.0 2.0 0.00 0.00 0.00 51 1007.8
20260501214018 91 0 0.0 2.0 0.00 0.00 0.00 53 1007.8
20260501213516 90 250 0.0 2.0 0.00 0.00 0.00 52 1007.8
20260501213034 90 0 0.0 2.0 0.00 0.00 0.00 54 1007.8
20260501212514 89 48 0.0 1.0 0.00 0.00 0.00 54 1007.8
20260501212013 89 0 0.0 0.0 0.00 0.00 0.00 56 1007.8
20260501211534 89 0 0.0 1.0 0.00 0.00 0.00 56 1007.8
20260501211015 89 0 0.0 1.0 0.00 0.00 0.00 58 1007.8
20260501210517 89 0 0.0 3.0 0.00 0.00 0.00 57 1007.9
20260501210033 89 0 0.0 3.0 0.00 0.00 0.00 53 1007.8